Location: Abundant Grace Fellowship
(35.0349°N, 90.0924°W)
Time: 21:45:38
(UTC+00:00)

USA 238 - Pass Details

Date: 18 January 2026
Orbit: 883 x 1328 km, 63.4° (Epoch: 10 January)

Event Time Altitude Azimuth Distance (km) Brightness Sun altitude
Rises 23:58:10 0° 329° (NNW) 4,045 6.9 -9.2°
Reaches altitude 10° 00:00:48 10° 331° (NNW) 3,137 6.3 -9.7°
Maximum altitude 00:08:30 81° 59° (ENE) 1,293 4.0 -11.2°
Drops below altitude 10° 00:16:43 10° 147° (SSE) 3,341 6.1 -12.8°
Sets 00:19:36 0° 148° (SSE) 4,320 6.7 -13.4°
